GW4717 Weather Reports


time (UTC)temp
C
wind
direction
speed
KPH
gust
KPH
rain 1hr
cm
rain 24hr
cm
rain mn
cm
humidity
%
barometer
mb
20260503230214 12 285 0.0 3.2 0.00 0.00 0.00 31 1016.8
20260503225711 12 269 1.6 4.8 0.00 0.00 0.00 30 1016.9
20260503225206 12 249 4.8 6.4 0.00 0.00 0.00 31 1016.6
20260503224704 13 313 1.6 4.8 0.00 0.00 0.00 29 1016.6
20260503224201 13 268 4.8 9.7 0.00 0.00 0.00 31 1016.6
20260503223659 14 171 1.6 3.2 0.00 0.00 0.00 31 1016.5
20260503223156 15 266 0.0 0.0 0.00 0.00 0.00 26 1016.6
20260503222652 15 297 3.2 6.4 0.00 0.00 0.00 27 1016.5
20260503222150 15 322 3.2 6.4 0.00 0.00 0.00 28 1016.6
20260503221648 15 304 1.6 3.2 0.00 0.00 0.00 26 1016.5
20260503221144 15 249 4.8 6.4 0.00 0.00 0.00 27 1016.5
20260503220636 15 83 0.0 4.8 0.00 0.00 0.00 29 1016.6
20260503220132 15 297 1.6 4.8 0.00 0.00 0.00 30 1016.5
20260503215624 15 143 3.2 3.2 0.00 0.00 0.00 27 1016.4
20260503215120 15 271 1.6 3.2 0.00 0.00 0.00 28 1016.7
20260503214619 15 135 4.8 4.8 0.00 0.00 0.00 28 1016.2
20260503214114 16 348 6.4 9.7 0.00 0.00 0.00 27 1016.4
20260503213609 15 141 3.2 4.8 0.00 0.00 0.00 27 1016.5
20260503213104 16 258 3.2 6.4 0.00 0.00 0.00 28 1016.7
20260503212602 15 304 8.0 11.3 0.00 0.00 0.00 26 1016.7
20260503212059 15 152 3.2 16.1 0.00 0.00 0.00 28 1016.5
20260503211556 15 205 0.0 3.2 0.00 0.00 0.00 26 1016.5
20260503211052 16 294 6.4 6.4 0.00 0.00 0.00 25 1016.6
20260503210549 17 236 0.0 1.6 0.00 0.00 0.00 30 1016.4
20260503210044 15 198 0.0 4.8 0.00 0.00 0.00 32 1016.6
20260503205541 16 155 3.2 4.8 0.00 0.00 0.00 25 1016.8
20260503205038 16 279 1.6 6.4 0.00 0.00 0.00 25 1016.7
20260503204535 16 237 0.0 3.2 0.00 0.00 0.00 29 1016.7
20260503204032 15 127 3.2 4.8 0.00 0.00 0.00 27 1016.7
20260503203529 15 266 0.0 3.2 0.00 0.00 0.00 26 1016.9
20260503203026 15 311 6.4 6.4 0.00 0.00 0.00 27 1016.9
20260503202524 15 279 1.6 9.7 0.00 0.00 0.00 31 1017.0
20260503202022 15 176 0.0 4.8 0.00 0.00 0.00 28 1017.1
20260503201520 16 318 3.2 6.4 0.00 0.00 0.00 26 1017.1
20260503201017 16 152 0.0 1.6 0.00 0.00 0.00 36 1017.0
20260503200513 15 273 1.6 4.8 0.00 0.00 0.00 31 1017.2
20260503200010 14 315 6.4 6.4 0.00 0.00 0.00 27 1017.4
20260503195507 15 156 4.8 4.8 0.00 0.00 0.00 30 1017.2
20260503195003 15 351 0.0 4.8 0.00 0.00 0.00 31 1017.4
20260503194501 15 320 3.2 16.1 0.00 0.00 0.00 29 1017.7
20260503194000 15 151 4.8 9.7 0.00 0.00 0.00 27 1017.7
20260503193457 15 264 1.6 6.4 0.00 0.00 0.00 31 1017.4
20260503192953 15 307 1.6 4.8 0.00 0.00 0.00 31 1017.6
20260503192449 14 116 1.6 9.7 0.00 0.00 0.00 30 1017.8
20260503191944 17 292 1.6 3.2 0.00 0.00 0.00 30 1017.7
20260503191443 16 336 1.6 3.2 0.00 0.00 0.00 42 1017.9
20260503190938 16 307 0.0 1.6 0.00 0.00 0.00 32 1017.9
20260503190436 15 339 1.6 6.4 0.00 0.00 0.00 26 1017.9
20260503185933 14 296 3.2 9.7 0.00 0.00 0.00 29 1018.0
20260503185429 13 312 4.8 12.9 0.00 0.00 0.00 31 1017.8
20260503184928 15 254 1.6 4.8 0.00 0.00 0.00 30 1017.9
20260503184425 16 245 1.6 3.2 0.00 0.00 0.00 35 1018.3
20260503183922 16 311 0.0 4.8 0.00 0.00 0.00 38 1018.4
20260503183418 15 153 1.6 3.2 0.00 0.00 0.00 33 1018.5
20260503182916 14 250 1.6 4.8 0.00 0.00 0.00 31 1018.5
20260503182415 13 313 6.4 16.1 0.00 0.00 0.00 30 1018.7
20260503181911 15 326 4.8 6.4 0.00 0.00 0.00 32 1018.4
20260503181408 15 301 0.0 3.2 0.00 0.00 0.00 35 1018.4
20260503180904 14 313 1.6 4.8 0.00 0.00 0.00 37 1018.6
20260503180403 14 229 0.0 6.4 0.00 0.00 0.00 35 1018.8
20260503175859 13 307 3.2 12.9 0.00 0.00 0.00 32 1018.6
20260503175357 14 303 1.6 3.2 0.00 0.00 0.00 34 1018.8
20260503174857 12 293 12.9 14.5 0.00 0.00 0.00 31 1018.7
20260503174356 12 301 4.8 9.7 0.00 0.00 0.00 35 1018.6
20260503173851 12 305 3.2 4.8 0.00 0.00 0.00 31 1018.8
20260503173348 12 303 1.6 12.9 0.00 0.00 0.00 37 1018.8
20260503172844 12 219 1.6 9.7 0.00 0.00 0.00 31 1018.8
20260503172342 11 39 3.2 4.8 0.00 0.00 0.00 35 1018.9
20260503171838 13 307 16.1 27.4 0.00 0.00 0.00 29 1018.7
20260503171335 14 231 3.2 3.2 0.00 0.00 0.00 38 1018.8
20260503170832 13 137 0.0 3.2 0.00 0.00 0.00 32 1018.9
20260503170329 13 169 4.8 9.7 0.00 0.00 0.00 38 1018.9
20260503150721 9 303 0.0 4.8 0.00 0.00 0.00 44 1019.8
20260503150217 8 232 1.6 12.9 0.00 0.00 0.00 44 1020.0
20260503140141 6 289 0.0 3.2 0.00 0.00 0.00 54 1020.0
20260503131110 5 156 1.6 1.6 0.00 0.00 0.00 55 1019.7
20260503130608 5 246 0.0 11.3 0.00 0.00 0.00 52 1019.5
20260503130106 5 268 0.0 11.3 0.00 0.00 0.00 53 1019.6
20260503110458 1 248 0.0 0.0 0.00 0.00 0.00 68 1018.7
20260503090344 2 162 1.6 4.8 0.00 0.00 0.00 68 1017.1
20260503081311 2 267 1.6 4.8 0.00 0.00 0.00 66 1016.9
20260503080807 2 262 1.6 4.8 0.00 0.00 0.00 67 1017.0
20260503080305 2 136 1.6 3.2 0.00 0.00 0.00 68 1016.9
20260503072741 2 151 0.0 1.6 0.00 0.00 0.00 66 1016.6
20260503072238 2 241 0.0 1.6 0.00 0.00 0.00 67 1016.6
20260503071734 2 312 4.8 9.7 0.00 0.00 0.00 65 1016.5
20260503071231 2 308 4.8 9.7 0.00 0.00 0.00 66 1016.3
20260503070727 2 97 3.2 6.4 0.00 0.00 0.00 65 1016.6
20260503070226 2 308 3.2 12.9 0.00 0.00 0.00 66 1016.5
20260503060145 2 282 1.6 4.8 0.00 0.00 0.00 65 1016.5
20260503054632 3 312 1.6 3.2 0.00 0.00 0.00 65 1016.6
20260503054130 3 303 3.2 9.7 0.00 0.00 0.00 63 1016.5
20260503053627 3 308 0.0 4.8 0.00 0.00 0.00 63 1016.7
20260503053126 3 135 1.6 4.8 0.00 0.00 0.00 64 1016.7
20260503052622 3 159 0.0 1.6 0.00 0.00 0.00 66 1016.6
20260503052118 3 316 1.6 1.6 0.00 0.00 0.00 66 1016.3
20260503051613 3 273 0.0 1.6 0.00 0.00 0.00 65 1016.3
20260503051112 3 65 1.6 3.2 0.00 0.00 0.00 67 1016.5
20260503050608 3 218 1.6 6.4 0.00 0.00 0.00 66 1016.5
20260503050105 3 301 1.6 1.6 0.00 0.00 0.00 68 1016.5
20260503045602 3 311 0.0 0.0 0.00 0.00 0.00 70 1016.7
20260503045059 3 315 1.6 3.2 0.00 0.00 0.00 68 1016.5
20260503044556 3 308 0.0 0.0 0.00 0.00 0.00 72 1016.5
20260503044053 3 308 0.0 0.0 0.00 0.00 0.00 72 1016.6
20260503043549 3 158 0.0 1.6 0.00 0.00 0.00 71 1016.6
20260503043046 3 293 0.0 0.0 0.00 0.00 0.00 71 1016.6
20260503042543 3 293 0.0 0.0 0.00 0.00 0.00 71 1016.6
20260503042039 3 293 0.0 0.0 0.00 0.00 0.00 71 1016.6
20260503041536 3 293 0.0 0.0 0.00 0.00 0.00 70 1016.6
20260503041034 4 293 0.0 0.0 0.00 0.00 0.00 68 1016.5
20260503040531 4 293 0.0 3.2 0.00 0.00 0.00 66 1016.6
20260503040028 4 314 1.6 3.2 0.00 0.00 0.00 65 1016.8
20260503035525 4 305 1.6 9.7 0.00 0.00 0.00 65 1016.6
20260503035023 4 176 1.6 3.2 0.00 0.00 0.00 68 1016.6
20260503034520 4 278 0.0 1.6 0.00 0.00 0.00 65 1016.6
20260503034017 3 236 0.0 0.0 0.00 0.00 0.00 67 1016.6
20260503033514 3 297 0.0 1.6 0.00 0.00 0.00 69 1016.5
20260503033012 3 303 1.6 1.6 0.00 0.00 0.00 68 1016.7
20260503032510 3 304 1.6 1.6 0.00 0.00 0.00 69 1016.5
20260503032008 3 304 1.6 1.6 0.00 0.00 0.00 68 1016.4
20260503031506 3 256 0.0 0.0 0.00 0.00 0.00 65 1016.6
20260503031002 4 149 0.0 0.0 0.00 0.00 0.00 64 1016.6
20260503030458 3 295 0.0 0.0 0.00 0.00 0.00 67 1016.8
20260503025955 4 288 0.0 0.0 0.00 0.00 0.00 65 1016.7
20260503025452 4 295 1.6 1.6 0.00 0.00 0.00 62 1016.6
20260503024950 5 297 0.0 3.2 0.00 0.00 0.00 61 1016.8
20260503024446 5 160 0.0 0.0 0.00 0.00 0.00 60 1016.6
20260503023943 5 294 0.0 1.6 0.00 0.00 0.00 64 1016.8
20260503023440 5 296 0.0 0.0 0.00 0.00 0.00 61 1016.7
20260503022937 5 302 0.0 1.6 0.00 0.00 0.00 61 1016.7
20260503022432 5 291 0.0 0.0 0.00 0.00 0.00 60 1016.5
20260503021928 5 299 0.0 3.2 0.00 0.00 0.00 56 1016.7
20260503021424 5 293 0.0 1.6 0.00 0.00 0.00 59 1016.6
20260503020922 5 282 0.0 4.8 0.00 0.00 0.00 56 1016.4
20260503020420 5 246 0.0 1.6 0.00 0.00 0.00 56 1016.4
20260503015915 5 262 0.0 0.0 0.00 0.00 0.00 56 1016.6
20260503015412 5 279 0.0 1.6 0.00 0.00 0.00 57 1016.5
20260503014908 6 308 0.0 4.8 0.00 0.00 0.00 55 1016.4
20260503014405 6 298 0.0 3.2 0.00 0.00 0.00 54 1016.5
20260503013903 6 101 0.0 4.8 0.00 0.00 0.00 55 1016.3
20260503013400 5 349 3.2 3.2 0.00 0.00 0.00 56 1016.5
20260503012857 5 281 0.0 1.6 0.00 0.00 0.00 57 1016.4
20260503012355 5 268 0.0 1.6 0.00 0.00 0.00 56 1016.4
20260503011851 5 241 0.0 1.6 0.00 0.00 0.00 55 1016.4
20260503011348 5 290 0.0 0.0 0.00 0.00 0.00 57 1016.4
20260503010845 5 322 0.0 0.0 0.00 0.00 0.00 56 1016.4
20260503010342 5 322 0.0 1.6 0.00 0.00 0.00 54 1016.2
20260503005839 5 325 0.0 1.6 0.00 0.00 0.00 58 1016.3
20260503005337 6 325 1.6 4.8 0.00 0.00 0.00 53 1015.9
20260503004833 6 301 0.0 1.6 0.00 0.00 0.00 51 1015.8
20260503004330 6 305 1.6 4.8 0.00 0.00 0.00 51 1015.8
20260503003827 6 166 0.0 3.2 0.00 0.00 0.00 51 1015.7
20260503003324 6 285 0.0 4.8 0.00 0.00 0.00 50 1015.6
20260503002821 6 305 3.2 11.3 0.00 0.00 0.00 50 1015.6
20260503002318 6 239 0.0 3.2 0.00 0.00 0.00 49 1015.6
20260503001814 6 302 3.2 6.4 0.00 0.00 0.00 47 1015.7
20260503001311 6 140 1.6 1.6 0.00 0.00 0.00 48 1015.6
20260503000808 7 289 0.0 1.6 0.00 0.00 0.00 48 1015.6
20260503000305 7 297 3.2 3.2 0.00 0.00 0.00 47 1015.7
20260502235802 7 197 1.6 1.6 0.00 0.00 0.00 46 1015.6
20260502235300 7 274 0.0 1.6 0.00 0.00 0.00 49 1015.4
20260502234756 7 281 0.0 3.2 0.00 0.00 0.00 46 1015.5
20260502234253 7 304 4.8 6.4 0.00 0.00 0.00 46 1015.3
20260502233749 7 228 3.2 9.7 0.00 0.00 0.00 45 1015.1
20260502233246 7 309 1.6 3.2 0.00 0.00 0.00 48 1015.1
20260502232742 7 254 3.2 16.1 0.00 0.00 0.00 45 1015.0
20260502232239 7 297 1.6 4.8 0.00 0.00 0.00 45 1015.1
20260502231736 7 212 1.6 4.8 0.00 0.00 0.00 45 1015.1
20260502231234 7 302 3.2 4.8 0.00 0.00 0.00 45 1015.0
20260502230732 7 37 0.0 1.6 0.00 0.00 0.00 44 1015.0